< Cyclone 198203 1982 Season Cyclone 198205 >
Cyclone 198204 (UNNAMED)
General InformationTrack Information on Google MapsDetailed Wind InformationList of All Images || ResourceGoogle EarthGE AnimationAtom FeedGeoJSON
Detalied Best Track (Time Zone = UTC)
Year Month Day Hour Lat. Long. Pressure (hPa) Wind (kt) Class Image Chart
1981 12 19 23 -11.6 140.3 1004 25 2 Image --
1981 12 20 02 -11.8 139.4 1001 25 2 Image --
1981 12 20 05 -11.8 138.8 998 30 2 Image --
1981 12 20 08 -11.9 138.3 994 40 3 Image --
1981 12 20 11 -11.9 137.9 990 45 3 Image --
1981 12 20 17 -12.1 136.7 995 40 3 Image --
1981 12 20 20 -12.3 135.6 1001 25 2 Image --
1981 12 20 23 -12.3 134.0 1004 25 2 Image --
1981 12 21 02 -12.2 133.1 1005 25 2 Image --
1981 12 21 05 -12.1 132.0 1005 25 2 Image --
1981 12 21 08 -12.1 131.2 1005 25 2 Image --
1981 12 21 11 -12.0 130.5 1005 25 2 Image --
1981 12 21 14 -11.8 130.1 1005 25 2 Image --
1981 12 21 17 -11.6 129.5 1000 25 2 Image --
1981 12 21 20 -11.4 128.9 998 30 2 Image --
1981 12 21 23 -11.1 128.1 998 30 2 Image --
1981 12 22 02 -11.1 127.2 988 30 2 Image --
1981 12 22 05 -11.3 126.4 992 40 3 Image --
1981 12 22 08 -11.3 125.6 992 40 3 Image --
1981 12 22 11 -11.3 125.0 995 40 3 Image --
1981 12 22 18 -11.5 123.7 995 35 3 Image --
1981 12 23 00 -11.7 122.6 995 35 3 Image --
1981 12 23 06 -11.9 121.5 998 30 2 Image --
1981 12 23 12 -12.0 121.0 1000 25 2 Image --
< Cyclone 198203 1982 Season Cyclone 198205 >

Help